START_TIME,STEP,MOV.,M6,t_acc.,M7,t_acc.,M19,t_acc.,H36,t_acc.
1979-07-02 18:00:27.970 ,0,1,0.,12.0,0.,12.0,0.,12.0,0.,12.0
1979-07-02 18:00:39.970 ,0,1,0.,12.0,0.,12.0,0.,12.0,0.,12.0
1979-07-02 18:00:51.970 ,3,1,0.,12.0,0.,12.0,0.,12.0,0.,12.0
1979-07-02 18:01:03.970 ,3,1,0.,12.0,0.,12.0,0.,12.0,0.,12.0
1979-07-02 18:01:15.970 ,7,1,0.,12.0,0.,12.0,0.,12.0,0.,12.0
1979-07-02 18:01:27.970 ,7,1,0.,12.0,0.,12.0,0.,12.0,0.,12.0
1979-07-02 18:01:39.970 ,4,1,0.,12.0,0.,12.0,0.,12.0,0.,12.0
1979-07-02 18:01:51.970 ,4,1,0.,12.0,0.,12.0,0.,12.0,0.,12.0
1979-07-02 18:02:03.970 ,0,1,0.,12.0,0.,12.0,0.,12.0,0.,12.0
1979-07-02 18:02:15.970 ,0,1,0.,12.0,0.,12.0,0.,12.0,0.,12.0
1979-07-02 18:02:27.970 ,3,1,0.,12.0,0.,12.0,0.,12.0,0.,12.0
1979-07-02 18:02:39.970 ,3,1,0.,12.0,0.,12.0,0.,12.0,0.,12.0
1979-07-02 18:02:51.970 ,7,1,0.,12.0,0.,12.0,0.,12.0,0.,12.0
1979-07-02 18:03:03.970 ,7,1,0.,12.0,0.,12.0,0.,12.0,0.,12.0
1979-07-02 18:03:15.970 ,4,1,0.,12.0,0.,12.0,0.,12.0,0.,12.0
1979-07-02 18:03:27.970 ,4,1,0.,12.0,0.,12.0,0.,12.0,0.,12.0
1979-07-02 18:03:39.970 ,0,1,0.,12.0,0.,12.0,0.,12.0,0.,12.0
1979-07-02 18:03:51.970 ,0,1,0.,12.0,0.,12.0,0.,12.0,0.,12.0
1979-07-02 18:04:03.970 ,3,1,0.,12.0,0.,12.0,0.,12.0,0.,12.0
1979-07-02 18:04:15.970 ,3,1,0.,12.0,0.,12.0,0.,12.0,0.,12.0
1979-07-02 18:04:27.970 ,7,1,0.,12.0,0.,12.0,0.,12.0,0.,12.0
1979-07-02 18:04:39.970 ,7,1,0.,12.0,0.,12.0,0.,12.0,0.,12.0
1979-07-02 18:04:51.970 ,4,1,0.,12.0,0.,12.0,0.,12.0,0.,12.0
1979-07-02 18:05:03.970 ,4,1,0.,12.0,0.,12.0,0.,12.0,0.,12.0
1979-07-02 18:05:15.970 ,0,1,0.,12.0,0.,12.0,0.,12.0,0.,12.0
1979-07-02 18:05:27.970 ,0,1,0.,12.0,0.,12.0,0.,12.0,0.,12.0
1979-07-02 18:05:39.970 ,0,0,0.,12.0,0.,12.0,0.,12.0,0.,12.0
1979-07-02 18:05:51.970 ,0,0,0.,12.0,0.,12.0,0.,12.0,0.,12.0
1979-07-02 18:06:03.970 ,0,0,0.,12.0,0.,12.0,0.,12.0,0.,12.0
1979-07-02 18:06:15.970 ,0,0,0.,12.0,0.,12.0,0.,12.0,0.,12.0
1979-07-02 18:06:27.970 ,5,1,0.,12.0,0.,12.0,0.,12.0,0.,12.0
1979-07-02 18:06:39.970 ,5,1,0.,12.0,0.,12.0,0.,12.0,0.,12.0
1979-07-02 18:06:51.970 ,5,0,0.,12.0,0.,12.0,0.,12.0,0.,12.0
1979-07-02 18:07:03.970 ,5,0,0.,12.0,0.,12.0,0.,12.0,0.,12.0
1979-07-02 18:07:15.970 ,4,1,0.,12.0,0.,12.0,0.,12.0,0.,12.0
1979-07-02 18:07:27.970 ,4,1,0.,12.0,0.,12.0,0.,12.0,0.,12.0
1979-07-02 18:07:39.970 ,4,0,0.,12.0,0.,12.0,0.,12.0,0.,12.0
1979-07-02 18:07:51.970 ,4,0,0.,12.0,0.,12.0,0.,12.0,0.,12.0
1979-07-02 18:08:03.970 ,3,1,0.,12.0,0.,12.0,0.,12.0,0.,12.0
1979-07-02 18:08:15.970 ,3,1,0.,12.0,0.,12.0,0.,12.0,0.,12.0
1979-07-02 18:08:27.970 ,3,0,0.,12.0,0.,12.0,0.,12.0,0.,12.0
1979-07-02 18:08:39.970 ,3,0,0.,12.0,0.,12.0,0.,12.0,0.,12.0
1979-07-02 18:08:51.970 ,2,1,0.,12.0,0.,12.0,0.,12.0,0.,12.0
1979-07-02 18:09:03.970 ,2,1,0.,12.0,0.,12.0,0.,12.0,0.,12.0
1979-07-02 18:09:15.970 ,2,0,0.,12.0,0.,12.0,0.,12.0,0.,12.0
1979-07-02 18:09:27.970 ,2,0,0.,12.0,0.,12.0,0.,12.0,0.,12.0
1979-07-02 18:09:39.970 ,1,1,0.,12.0,0.,12.0,0.,12.0,0.,12.0
1979-07-02 18:09:51.970 ,1,1,0.,12.0,0.,12.0,0.,12.0,0.,12.0
1979-07-02 18:10:03.970 ,1,0,0.,12.0,0.,12.0,0.,12.0,0.,12.0
1979-07-02 18:10:15.970 ,1,0,0.,12.0,0.,12.0,0.,12.0,0.,12.0
1979-07-02 18:10:27.970 ,0,1,0.,12.0,0.,12.0,0.,12.0,0.,12.0
1979-07-02 18:10:39.970 ,0,1,0.,12.0,0.,12.0,0.,12.0,0.,12.0
1979-07-02 18:10:51.970 ,0,0,0.,12.0,0.,12.0,0.,12.0,0.,12.0
1979-07-02 18:11:03.970 ,0,0,0.,12.0,0.,12.0,0.,12.0,0.,12.0
1979-07-02 18:11:15.970 ,0,1,0.,12.0,0.,12.0,0.,12.0,0.,12.0
1979-07-02 18:11:27.970 ,0,1,0.,12.0,0.,12.0,0.,12.0,0.,12.0
1979-07-02 18:11:39.970 ,0,0,0.,12.0,0.,12.0,0.,12.0,0.,12.0
1979-07-02 18:11:51.970 ,0,0,0.,12.0,0.,12.0,0.,12.0,0.,12.0
1979-07-02 18:12:03.970 ,1,1,0.,12.0,0.,12.0,0.,12.0,0.,12.0
1979-07-02 18:12:15.970 ,1,1,0.,12.0,0.,12.0,0.,12.0,0.,12.0
1979-07-02 18:12:27.970 ,1,0,0.,12.0,0.,12.0,0.,12.0,0.,12.0
1979-07-02 18:12:39.970 ,1,0,0.,12.0,0.,12.0,0.,12.0,0.,12.0
1979-07-02 18:12:51.970 ,2,1,0.,12.0,0.,12.0,0.,12.0,0.,12.0
1979-07-02 18:13:03.970 ,2,1,0.,12.0,0.,12.0,0.,12.0,0.,12.0
1979-07-02 18:13:15.970 ,2,0,0.,12.0,0.,12.0,0.,12.0,0.,12.0
1979-07-02 18:13:27.970 ,2,0,0.,12.0,0.,12.0,0.,12.0,0.,12.0
1979-07-02 18:13:39.970 ,3,1,0.,12.0,0.,12.0,0.,12.0,0.,12.0
1979-07-02 18:13:51.970 ,3,1,0.,12.0,0.,12.0,0.,12.0,0.,12.0
1979-07-02 18:14:03.970 ,3,0,0.,12.0,0.,12.0,0.,12.0,0.,12.0
1979-07-02 18:14:15.970 ,3,0,0.,12.0,0.,12.0,0.,12.0,0.,12.0
1979-07-02 18:14:27.970 ,4,1,0.,12.0,0.,12.0,0.,12.0,0.,12.0
1979-07-02 18:14:39.970 ,4,1,0.,12.0,0.,12.0,0.,12.0,0.,12.0
1979-07-02 18:14:51.970 ,4,0,0.,12.0,0.,12.0,0.,12.0,0.,12.0
1979-07-02 18:15:03.970 ,4,0,0.,12.0,0.,12.0,0.,12.0,0.,12.0
1979-07-02 18:15:15.970 ,5,1,0.,12.0,0.,12.0,0.,12.0,0.,12.0
1979-07-02 18:15:27.970 ,5,1,0.,12.0,0.,12.0,0.,12.0,0.,12.0
1979-07-02 18:15:39.970 ,5,0,0.,12.0,0.,12.0,0.,12.0,0.,12.0
1979-07-02 18:15:51.970 ,5,0,0.,12.0,0.,12.0,0.,12.0,0.,12.0
1979-07-02 18:16:03.970 ,6,1,0.,12.0,0.,12.0,0.,12.0,0.,12.0
1979-07-02 18:16:15.970 ,6,1,0.,12.0,0.,12.0,0.,12.0,0.,12.0
1979-07-02 18:16:27.970 ,6,0,0.,12.0,0.,12.0,0.,12.0,0.,12.0
1979-07-02 18:16:39.970 ,6,0,0.,12.0,0.,12.0,0.,12.0,0.,12.0
1979-07-02 18:16:51.970 ,7,1,0.,12.0,0.,12.0,0.,12.0,0.,12.0
1979-07-02 18:17:03.970 ,7,1,0.,12.0,0.,12.0,0.,12.0,0.,12.0
1979-07-02 18:17:15.970 ,7,0,0.,12.0,0.,12.0,0.,12.0,0.,12.0
1979-07-02 18:17:27.970 ,7,0,0.,12.0,0.,12.0,0.,12.0,0.,12.0
1979-07-02 18:17:39.970 ,7,1,0.,12.0,0.,12.0,0.,12.0,0.,12.0
1979-07-02 18:17:51.970 ,7,1,0.,12.0,0.,12.0,0.,12.0,0.,12.0
1979-07-02 18:18:03.970 ,7,0,0.,12.0,0.,12.0,0.,12.0,0.,12.0
1979-07-02 18:18:15.970 ,7,0,0.,12.0,0.,12.0,0.,12.0,0.,12.0
1979-07-02 18:18:27.970 ,6,1,0.,12.0,0.,12.0,0.,12.0,0.,12.0
1979-07-02 18:18:39.970 ,6,1,0.,12.0,0.,12.0,0.,12.0,0.,12.0
1979-07-02 18:18:51.970 ,6,0,0.,12.0,0.,12.0,0.,12.0,0.,12.0
1979-07-02 18:19:03.970 ,6,0,0.,12.0,0.,12.0,0.,12.0,0.,12.0
1979-07-02 18:19:15.970 ,5,1,0.,12.0,0.,12.0,0.,12.0,0.,12.0
1979-07-02 18:19:27.970 ,5,1,1.,12.0,0.,12.0,0.,12.0,0.,12.0
1979-07-02 18:19:39.970 ,5,0,0.,12.0,0.,12.0,0.,12.0,0.,12.0
1979-07-02 18:19:51.970 ,5,0,0.,12.0,0.,12.0,0.,12.0,0.,12.0
1979-07-02 18:20:03.970 ,4,1,0.,12.0,0.,12.0,0.,12.0,0.,12.0
1979-07-02 18:20:15.970 ,4,1,0.,12.0,0.,12.0,0.,12.0,0.,12.0
1979-07-02 18:20:27.970 ,4,0,0.,12.0,0.,12.0,0.,12.0,0.,12.0
1979-07-02 18:20:39.970 ,4,0,0.,12.0,0.,12.0,0.,12.0,0.,12.0
1979-07-02 18:20:51.970 ,3,1,0.,12.0,0.,12.0,0.,12.0,0.,12.0
1979-07-02 18:21:03.970 ,3,1,0.,12.0,0.,12.0,0.,12.0,0.,12.0
1979-07-02 18:21:15.970 ,3,0,0.,12.0,0.,12.0,0.,12.0,0.,12.0
1979-07-02 18:21:27.970 ,3,0,0.,12.0,0.,12.0,0.,12.0,0.,12.0
1979-07-02 18:21:39.970 ,2,1,0.,12.0,0.,12.0,0.,12.0,0.,12.0
1979-07-02 18:21:51.970 ,2,1,0.,12.0,0.,12.0,0.,12.0,0.,12.0
1979-07-02 18:22:03.970 ,2,0,0.,12.0,0.,12.0,0.,12.0,0.,12.0
1979-07-02 18:22:15.970 ,2,0,0.,12.0,0.,12.0,0.,12.0,0.,12.0
1979-07-02 18:22:27.970 ,1,1,0.,12.0,0.,12.0,0.,12.0,0.,12.0
1979-07-02 18:22:39.970 ,1,1,0.,12.0,0.,12.0,0.,12.0,0.,12.0
1979-07-02 18:22:51.970 ,1,0,0.,12.0,0.,12.0,0.,12.0,0.,12.0
1979-07-02 18:23:03.970 ,1,0,0.,12.0,0.,12.0,0.,12.0,0.,12.0
1979-07-02 18:24:03.970 ,0,0,0.,12.0,0.,12.0,0.,12.0,0.,12.0
1979-07-02 18:24:15.970 ,0,0,0.,12.0,0.,12.0,0.,12.0,0.,12.0
1979-07-02 18:24:27.970 ,0,0,0.,12.0,0.,12.0,0.,12.0,0.,12.0
1979-07-02 18:24:39.970 ,0,0,0.,12.0,0.,12.0,0.,12.0,0.,12.0
1979-07-02 18:24:51.970 ,1,1,0.,12.0,0.,12.0,0.,12.0,0.,12.0
1979-07-02 18:25:03.970 ,1,1,0.,12.0,0.,12.0,0.,12.0,0.,12.0
1979-07-02 18:25:15.970 ,1,0,0.,12.0,0.,12.0,0.,12.0,0.,12.0
1979-07-02 18:25:27.970 ,1,0,0.,12.0,0.,12.0,0.,12.0,0.,12.0
1979-07-02 18:25:39.970 ,2,1,0.,12.0,0.,12.0,0.,12.0,0.,12.0
1979-07-02 18:25:51.970 ,2,1,0.,12.0,0.,12.0,0.,12.0,0.,12.0
1979-07-02 18:26:03.970 ,2,0,0.,12.0,0.,12.0,0.,12.0,0.,12.0
1979-07-02 18:26:15.970 ,2,0,0.,12.0,0.,12.0,0.,12.0,0.,12.0
1979-07-02 18:26:27.970 ,3,1,0.,12.0,0.,12.0,0.,12.0,0.,12.0
1979-07-02 18:26:39.970 ,3,1,0.,12.0,0.,12.0,0.,12.0,0.,12.0
1979-07-02 18:26:51.970 ,3,0,0.,12.0,0.,12.0,0.,12.0,0.,12.0
1979-07-02 18:27:03.970 ,3,0,0.,12.0,0.,12.0,0.,12.0,0.,12.0
1979-07-02 18:27:15.970 ,4,1,0.,12.0,0.,12.0,0.,12.0,0.,12.0
1979-07-02 18:27:27.970 ,4,1,0.,12.0,0.,12.0,0.,12.0,0.,12.0
1979-07-02 18:27:39.970 ,4,0,0.,12.0,0.,12.0,0.,12.0,0.,12.0
1979-07-02 18:27:51.970 ,4,0,0.,12.0,0.,12.0,0.,12.0,0.,12.0
1979-07-02 18:28:03.970 ,5,1,0.,12.0,0.,12.0,0.,12.0,0.,12.0
1979-07-02 18:28:15.970 ,5,1,0.,12.0,0.,12.0,0.,12.0,0.,12.0
1979-07-02 18:28:27.970 ,5,0,0.,12.0,0.,12.0,0.,12.0,0.,12.0
1979-07-02 18:28:39.970 ,5,0,0.,12.0,0.,12.0,0.,12.0,0.,12.0
1979-07-02 18:28:51.970 ,6,1,0.,12.0,0.,12.0,0.,12.0,0.,12.0
1979-07-02 18:29:03.970 ,6,1,0.,12.0,0.,12.0,0.,12.0,0.,12.0
1979-07-02 18:29:15.970 ,6,0,0.,12.0,0.,12.0,0.,12.0,0.,12.0
1979-07-02 18:29:27.970 ,6,0,0.,12.0,0.,12.0,0.,12.0,0.,12.0
1979-07-02 18:29:39.970 ,7,1,0.,12.0,0.,12.0,0.,12.0,0.,12.0
1979-07-02 18:29:51.970 ,7,1,0.,12.0,0.,12.0,0.,12.0,0.,12.0
1979-07-02 18:30:03.970 ,7,0,0.,12.0,0.,12.0,0.,12.0,0.,12.0
1979-07-02 18:30:15.970 ,7,0,0.,12.0,0.,12.0,0.,12.0,0.,12.0
1979-07-02 18:30:27.970 ,7,1,0.,12.0,0.,12.0,0.,12.0,0.,12.0
1979-07-02 18:30:39.970 ,7,1,0.,12.0,0.,12.0,0.,12.0,0.,12.0
1979-07-02 18:30:51.970 ,7,0,0.,12.0,0.,12.0,0.,12.0,0.,12.0
1979-07-02 18:31:03.970 ,7,0,0.,12.0,0.,12.0,0.,12.0,0.,12.0
1979-07-02 18:31:15.970 ,6,1,0.,12.0,0.,12.0,0.,12.0,0.,12.0
1979-07-02 18:31:27.970 ,6,1,0.,12.0,0.,12.0,0.,12.0,0.,12.0
1979-07-02 18:31:39.970 ,6,0,0.,12.0,0.,12.0,0.,12.0,0.,12.0
1979-07-02 18:31:51.970 ,6,0,0.,12.0,0.,12.0,0.,12.0,0.,12.0
1979-07-02 18:32:03.970 ,5,1,0.,12.0,0.,12.0,0.,12.0,0.,12.0
1979-07-02 18:32:15.970 ,5,1,0.,12.0,0.,12.0,0.,12.0,0.,12.0
1979-07-02 18:32:27.970 ,5,0,0.,12.0,0.,12.0,0.,12.0,0.,12.0
1979-07-02 18:32:39.970 ,5,0,0.,12.0,0.,12.0,0.,12.0,0.,12.0
1979-07-02 18:32:51.970 ,4,1,0.,12.0,0.,12.0,0.,12.0,0.,12.0
1979-07-02 18:33:03.970 ,4,1,0.,12.0,0.,12.0,0.,12.0,0.,12.0
1979-07-02 18:33:15.970 ,4,0,0.,12.0,0.,12.0,0.,12.0,0.,12.0
1979-07-02 18:33:27.970 ,4,0,0.,12.0,0.,12.0,0.,12.0,0.,12.0
1979-07-02 18:33:39.970 ,3,1,0.,12.0,0.,12.0,0.,12.0,0.,12.0
1979-07-02 18:33:51.970 ,3,1,0.,12.0,0.,12.0,0.,12.0,0.,12.0
1979-07-02 18:34:03.970 ,3,0,0.,12.0,0.,12.0,0.,12.0,0.,12.0
1979-07-02 18:34:15.970 ,3,0,0.,12.0,0.,12.0,0.,12.0,0.,12.0
1979-07-02 18:34:27.970 ,2,1,0.,12.0,0.,12.0,0.,12.0,0.,12.0
1979-07-02 18:34:39.970 ,2,1,0.,12.0,0.,12.0,0.,12.0,0.,12.0
1979-07-02 18:34:51.970 ,2,0,0.,12.0,0.,12.0,0.,12.0,0.,12.0
1979-07-02 18:35:03.970 ,2,0,0.,12.0,0.,12.0,0.,12.0,0.,12.0
1979-07-02 18:35:15.970 ,1,1,0.,12.0,0.,12.0,0.,12.0,0.,12.0
1979-07-02 18:35:27.970 ,1,1,0.,12.0,0.,12.0,0.,12.0,0.,12.0
1979-07-02 18:35:39.970 ,1,0,0.,12.0,0.,12.0,0.,12.0,0.,12.0
1979-07-02 18:35:51.970 ,1,0,0.,12.0,0.,12.0,0.,12.0,0.,12.0
1979-07-02 18:36:03.970 ,0,1,0.,12.0,0.,12.0,0.,12.0,0.,12.0
1979-07-02 18:36:15.970 ,0,1,0.,12.0,0.,12.0,0.,12.0,0.,12.0
1979-07-02 18:36:27.970 ,0,0,0.,12.0,0.,12.0,0.,12.0,0.,12.0
1979-07-02 18:36:39.970 ,0,0,0.,12.0,0.,12.0,0.,12.0,0.,12.0
1979-07-02 18:36:51.970 ,0,1,0.,12.0,0.,12.0,0.,12.0,0.,12.0
1979-07-02 18:37:03.970 ,0,1,0.,12.0,0.,12.0,0.,12.0,0.,12.0
1979-07-02 18:37:15.970 ,0,0,0.,12.0,0.,12.0,0.,12.0,0.,12.0
1979-07-02 18:37:27.970 ,0,0,0.,12.0,0.,12.0,0.,12.0,0.,12.0
1979-07-02 18:37:39.970 ,1,1,0.,12.0,0.,12.0,0.,12.0,0.,12.0
1979-07-02 18:37:51.970 ,1,1,0.,12.0,0.,12.0,0.,12.0,0.,12.0
1979-07-02 18:38:03.970 ,1,0,0.,12.0,0.,12.0,0.,12.0,0.,12.0
1979-07-02 18:38:15.970 ,1,0,0.,12.0,0.,12.0,0.,12.0,0.,12.0
1979-07-02 18:38:27.970 ,2,1,0.,12.0,0.,12.0,0.,12.0,0.,12.0
1979-07-02 18:38:39.970 ,2,1,0.,12.0,0.,12.0,0.,12.0,0.,12.0
1979-07-02 18:38:51.970 ,2,0,0.,12.0,0.,12.0,0.,12.0,0.,12.0
1979-07-02 18:39:03.970 ,2,0,0.,12.0,0.,12.0,0.,12.0,0.,12.0
1979-07-02 18:39:15.970 ,3,1,0.,12.0,0.,12.0,0.,12.0,0.,12.0
1979-07-02 18:39:27.970 ,3,1,0.,12.0,0.,12.0,0.,12.0,0.,12.0
1979-07-02 18:39:39.970 ,3,0,0.,12.0,0.,12.0,0.,12.0,0.,12.0
1979-07-02 18:39:51.970 ,3,0,0.,12.0,0.,12.0,0.,12.0,0.,12.0
1979-07-02 18:40:03.970 ,4,1,0.,12.0,0.,12.0,0.,12.0,0.,12.0
1979-07-02 18:40:15.970 ,4,1,0.,12.0,0.,12.0,0.,12.0,0.,12.0
1979-07-02 18:40:27.970 ,4,0,0.,12.0,0.,12.0,0.,12.0,0.,12.0
1979-07-02 18:40:39.970 ,4,0,0.,12.0,0.,12.0,0.,12.0,0.,12.0
1979-07-02 18:40:51.970 ,5,1,0.,12.0,0.,12.0,0.,12.0,0.,12.0
1979-07-02 18:41:03.970 ,5,1,0.,12.0,0.,12.0,0.,12.0,0.,12.0
1979-07-02 18:41:15.970 ,5,0,0.,12.0,0.,12.0,0.,12.0,0.,12.0
1979-07-02 18:41:27.970 ,5,0,0.,12.0,0.,12.0,0.,12.0,0.,12.0
1979-07-02 18:41:39.970 ,6,1,0.,12.0,0.,12.0,0.,12.0,0.,12.0
1979-07-02 18:41:51.970 ,6,1,0.,12.0,0.,12.0,0.,12.0,0.,12.0
1979-07-02 18:42:03.970 ,6,0,0.,12.0,0.,12.0,0.,12.0,0.,12.0
1979-07-02 18:42:15.970 ,6,0,0.,12.0,0.,12.0,0.,12.0,0.,12.0
1979-07-02 18:42:27.970 ,7,0,0.,12.0,0.,12.0,0.,12.0,0.,12.0
1979-07-02 18:42:39.970 ,7,0,0.,12.0,0.,12.0,0.,12.0,0.,12.0
1979-07-02 18:42:51.970 ,7,0,0.,12.0,0.,12.0,0.,12.0,0.,12.0
1979-07-02 18:43:03.970 ,7,0,0.,12.0,0.,12.0,0.,12.0,0.,12.0
1979-07-02 18:43:15.970 ,4,1,0.,12.0,0.,12.0,0.,12.0,0.,12.0
1979-07-02 18:43:27.970 ,4,1,0.,12.0,0.,12.0,0.,12.0,0.,12.0
1979-07-02 18:43:39.970 ,0,1,0.,12.0,0.,12.0,0.,12.0,0.,12.0
1979-07-02 18:43:51.970 ,0,1,0.,12.0,0.,12.0,0.,12.0,0.,12.0
1979-07-02 18:44:03.970 ,3,1,0.,12.0,0.,12.0,0.,12.0,0.,12.0
1979-07-02 18:44:15.970 ,3,1,0.,12.0,0.,12.0,0.,12.0,0.,12.0
1979-07-02 18:44:27.970 ,7,1,0.,12.0,0.,12.0,0.,12.0,0.,12.0
1979-07-02 18:44:39.970 ,7,1,0.,12.0,0.,12.0,0.,12.0,0.,12.0
1979-07-02 18:44:51.970 ,4,1,0.,12.0,0.,12.0,0.,12.0,0.,12.0
1979-07-02 18:45:03.970 ,4,1,0.,12.0,0.,12.0,0.,12.0,0.,12.0
1979-07-02 18:45:15.970 ,0,1,0.,12.0,0.,12.0,0.,12.0,0.,12.0
1979-07-02 18:45:27.970 ,0,1,0.,12.0,0.,12.0,0.,12.0,0.,12.0
1979-07-02 18:45:39.970 ,3,1,0.,12.0,0.,12.0,0.,12.0,0.,12.0
1979-07-02 18:45:51.970 ,3,1,0.,12.0,0.,12.0,0.,12.0,0.,12.0
1979-07-02 18:46:03.970 ,7,1,0.,12.0,0.,12.0,0.,12.0,0.,12.0
1979-07-02 18:46:15.970 ,7,1,0.,12.0,0.,12.0,0.,12.0,0.,12.0
1979-07-02 18:46:27.970 ,4,1,0.,12.0,0.,12.0,0.,12.0,0.,12.0
1979-07-02 18:46:39.970 ,4,1,0.,12.0,0.,12.0,0.,12.0,0.,12.0
1979-07-02 18:46:51.970 ,0,1,0.,12.0,0.,12.0,0.,12.0,0.,12.0
1979-07-02 18:47:03.970 ,0,1,0.,12.0,0.,12.0,0.,12.0,0.,12.0
1979-07-02 18:47:15.970 ,3,1,0.,12.0,0.,12.0,0.,12.0,0.,12.0
1979-07-02 18:47:27.970 ,3,1,0.,12.0,0.,12.0,0.,12.0,0.,12.0
1979-07-02 18:47:39.970 ,7,1,0.,12.0,0.,12.0,0.,12.0,0.,12.0
1979-07-02 18:47:51.970 ,7,1,0.,12.0,0.,12.0,0.,12.0,0.,12.0
1979-07-02 18:48:03.970 ,4,1,0.,12.0,0.,12.0,0.,12.0,0.,12.0
1979-07-02 18:48:15.970 ,4,1,0.,12.0,0.,12.0,0.,12.0,0.,12.0
1979-07-02 18:48:27.970 ,0,1,0.,12.0,0.,12.0,0.,12.0,0.,12.0
1979-07-02 18:48:39.970 ,0,1,0.,12.0,0.,12.0,0.,12.0,0.,12.0
1979-07-02 18:48:51.970 ,3,1,0.,12.0,0.,12.0,0.,12.0,0.,12.0
1979-07-02 18:49:03.970 ,3,1,0.,12.0,0.,12.0,0.,12.0,0.,12.0
1979-07-02 18:49:15.970 ,7,1,0.,12.0,0.,12.0,0.,12.0,0.,12.0
1979-07-02 18:49:27.970 ,7,1,0.,12.0,0.,12.0,0.,12.0,0.,12.0
1979-07-02 18:49:39.970 ,4,1,0.,12.0,0.,12.0,0.,12.0,0.,12.0
1979-07-02 18:49:51.970 ,4,1,0.,12.0,0.,12.0,0.,12.0,0.,12.0
1979-07-02 18:50:03.970 ,0,1,0.,12.0,0.,12.0,0.,12.0,0.,12.0
1979-07-02 18:50:15.970 ,0,1,0.,12.0,0.,12.0,0.,12.0,0.,12.0
1979-07-02 18:50:27.970 ,3,1,0.,12.0,0.,12.0,0.,12.0,0.,12.0
1979-07-02 18:50:39.970 ,3,1,0.,12.0,0.,12.0,0.,12.0,0.,12.0
1979-07-02 18:50:51.970 ,7,1,0.,12.0,0.,12.0,0.,12.0,0.,12.0
1979-07-02 18:51:03.970 ,7,1,0.,12.0,0.,12.0,0.,12.0,0.,12.0
1979-07-02 18:51:15.970 ,4,1,0.,12.0,0.,12.0,0.,12.0,0.,12.0
1979-07-02 18:51:27.970 ,4,1,0.,12.0,0.,12.0,0.,12.0,0.,12.0
1979-07-02 18:51:39.970 ,0,1,0.,12.0,0.,12.0,0.,12.0,0.,12.0
1979-07-02 18:51:51.970 ,0,1,0.,12.0,0.,12.0,0.,12.0,0.,12.0
1979-07-02 18:52:03.970 ,3,1,0.,12.0,0.,12.0,0.,12.0,0.,12.0
1979-07-02 18:52:15.970 ,3,1,0.,12.0,0.,12.0,0.,12.0,0.,12.0
1979-07-02 18:52:27.970 ,7,1,0.,12.0,0.,12.0,0.,12.0,0.,12.0
1979-07-02 18:52:39.970 ,7,1,0.,12.0,0.,12.0,0.,12.0,0.,12.0
1979-07-02 18:52:51.970 ,4,1,0.,12.0,0.,12.0,0.,12.0,0.,12.0
1979-07-02 18:53:03.970 ,4,1,0.,12.0,0.,12.0,0.,12.0,0.,12.0
1979-07-02 18:53:15.970 ,0,1,0.,12.0,0.,12.0,0.,12.0,0.,12.0
1979-07-02 18:53:27.970 ,0,1,0.,12.0,0.,12.0,0.,12.0,0.,12.0
1979-07-02 18:53:39.970 ,0,0,0.,12.0,0.,12.0,0.,12.0,0.,12.0
1979-07-02 18:53:51.970 ,0,0,0.,12.0,0.,12.0,0.,12.0,0.,12.0
1979-07-02 18:54:03.970 ,0,0,0.,12.0,0.,12.0,0.,12.0,0.,12.0
1979-07-02 18:54:15.970 ,0,0,0.,12.0,0.,12.0,0.,12.0,0.,12.0
1979-07-02 18:54:27.970 ,5,1,0.,12.0,0.,12.0,0.,12.0,0.,12.0
1979-07-02 18:54:39.970 ,5,1,0.,12.0,0.,12.0,0.,12.0,0.,12.0
1979-07-02 18:54:51.970 ,5,0,0.,12.0,0.,12.0,0.,12.0,0.,12.0
1979-07-02 18:55:03.970 ,5,0,0.,12.0,0.,12.0,0.,12.0,0.,12.0
1979-07-02 18:55:15.970 ,4,1,0.,12.0,0.,12.0,0.,12.0,0.,12.0
1979-07-02 18:55:27.970 ,4,1,0.,12.0,0.,12.0,0.,12.0,0.,12.0
1979-07-02 18:55:39.970 ,4,0,0.,12.0,0.,12.0,0.,12.0,0.,12.0
1979-07-02 18:55:51.970 ,4,0,0.,12.0,0.,12.0,0.,12.0,0.,12.0
1979-07-02 18:56:03.970 ,3,1,0.,12.0,0.,12.0,0.,12.0,0.,12.0
1979-07-02 18:56:15.970 ,3,1,0.,12.0,0.,12.0,0.,12.0,0.,12.0
1979-07-02 18:56:27.970 ,3,0,0.,12.0,0.,12.0,0.,12.0,0.,12.0
1979-07-02 18:56:39.970 ,3,0,0.,12.0,0.,12.0,0.,12.0,0.,12.0
1979-07-02 18:56:51.970 ,2,1,0.,12.0,0.,12.0,0.,12.0,0.,12.0
1979-07-02 18:57:03.970 ,2,1,0.,12.0,0.,12.0,0.,12.0,0.,12.0
1979-07-02 18:57:15.970 ,2,0,0.,12.0,0.,12.0,0.,12.0,0.,12.0
1979-07-02 18:57:27.970 ,2,0,0.,12.0,0.,12.0,0.,12.0,0.,12.0
1979-07-02 18:57:39.970 ,1,1,0.,12.0,0.,12.0,0.,12.0,0.,12.0
1979-07-02 18:57:51.970 ,1,1,0.,12.0,0.,12.0,0.,12.0,0.,12.0
1979-07-02 18:58:03.970 ,1,0,0.,12.0,0.,12.0,0.,12.0,0.,12.0
1979-07-02 18:58:15.970 ,1,0,0.,12.0,0.,12.0,0.,12.0,0.,12.0
1979-07-02 18:58:27.970 ,0,1,0.,12.0,0.,12.0,0.,12.0,0.,12.0
1979-07-02 18:58:39.970 ,0,1,0.,12.0,0.,12.0,0.,12.0,0.,12.0
1979-07-02 18:58:51.970 ,0,0,0.,12.0,0.,12.0,0.,12.0,0.,12.0
1979-07-02 18:59:03.970 ,0,0,0.,12.0,0.,12.0,0.,12.0,0.,12.0
1979-07-02 18:59:15.970 ,0,1,0.,12.0,0.,12.0,0.,12.0,0.,12.0
1979-07-02 18:59:27.970 ,0,1,0.,12.0,0.,12.0,0.,12.0,0.,12.0
1979-07-02 18:59:39.970 ,0,0,0.,12.0,0.,12.0,0.,12.0,0.,12.0
1979-07-02 18:59:51.970 ,0,0,0.,12.0,0.,12.0,0.,12.0,0.,12.0
1979-07-02 19:00:03.970 ,1,1,0.,12.0,0.,12.0,0.,12.0,0.,12.0
1979-07-02 19:00:15.970 ,1,1,0.,12.0,0.,12.0,0.,12.0,0.,12.0
1979-07-02 19:00:27.970 ,1,0,0.,12.0,0.,12.0,0.,12.0,0.,12.0
1979-07-02 19:00:39.970 ,1,0,0.,12.0,0.,12.0,0.,12.0,0.,12.0
1979-07-02 19:00:51.970 ,2,1,0.,12.0,0.,12.0,0.,12.0,0.,12.0
1979-07-02 19:01:03.970 ,2,1,0.,12.0,0.,12.0,0.,12.0,0.,12.0
1979-07-02 19:01:15.970 ,2,0,0.,12.0,0.,12.0,0.,12.0,0.,12.0
1979-07-02 19:01:27.970 ,2,0,0.,12.0,0.,12.0,0.,12.0,0.,12.0
1979-07-02 19:01:39.970 ,3,1,0.,12.0,0.,12.0,0.,12.0,0.,12.0
1979-07-02 19:01:51.970 ,3,1,0.,12.0,0.,12.0,0.,12.0,0.,12.0
1979-07-02 19:02:03.970 ,3,0,0.,12.0,0.,12.0,0.,12.0,0.,12.0
1979-07-02 19:02:15.970 ,3,0,0.,12.0,0.,12.0,0.,12.0,0.,12.0
1979-07-02 19:02:27.970 ,4,1,0.,12.0,0.,12.0,0.,12.0,0.,12.0
1979-07-02 19:02:39.970 ,4,1,0.,12.0,0.,12.0,0.,12.0,0.,12.0
1979-07-02 19:02:51.970 ,4,0,0.,12.0,0.,12.0,0.,12.0,0.,12.0
1979-07-02 19:03:03.970 ,4,0,0.,12.0,0.,12.0,0.,12.0,0.,12.0
1979-07-02 19:03:15.970 ,5,1,0.,12.0,0.,12.0,0.,12.0,0.,12.0
1979-07-02 19:03:27.970 ,5,1,0.,12.0,0.,12.0,0.,12.0,0.,12.0
1979-07-02 19:03:39.970 ,0,0,0.,12.0,0.,12.0,0.,12.0,0.,12.0
1979-07-02 19:03:51.970 ,0,0,0.,12.0,0.,12.0,0.,12.0,0.,12.0
1979-07-02 19:04:12.370 ,0,0,,0,,0,,0,,0
1979-07-02 19:04:24.370 ,0,0,,0,,0,,0,,0
1979-07-02 19:04:27.970 ,0,0,,0,,0,,0,,0
1979-07-02 19:04:39.970 ,0,0,0.,12.0,0.,12.0,0.,12.0,0.,12.0
1979-07-02 19:04:51.970 ,7,1,0.,12.0,0.,12.0,0.,12.0,0.,12.0
1979-07-02 19:05:03.970 ,7,1,0.,12.0,0.,12.0,0.,12.0,0.,12.0
1979-07-02 19:05:15.970 ,7,0,0.,12.0,0.,12.0,0.,12.0,0.,12.0
1979-07-02 19:05:27.970 ,7,0,0.,12.0,0.,12.0,0.,12.0,0.,12.0
1979-07-02 19:05:39.970 ,7,1,0.,12.0,0.,12.0,0.,12.0,0.,12.0
1979-07-02 19:05:51.970 ,7,1,0.,12.0,0.,12.0,0.,12.0,0.,12.0
1979-07-02 19:06:03.970 ,7,0,0.,12.0,0.,12.0,0.,12.0,0.,12.0
1979-07-02 19:06:15.970 ,7,0,0.,12.0,0.,12.0,0.,12.0,0.,12.0
1979-07-02 19:06:27.970 ,6,1,0.,12.0,0.,12.0,0.,12.0,0.,12.0
1979-07-02 19:06:39.970 ,6,1,0.,12.0,0.,12.0,0.,12.0,0.,12.0
1979-07-02 19:06:51.970 ,6,0,0.,12.0,0.,12.0,0.,12.0,0.,12.0
1979-07-02 19:07:03.970 ,6,0,0.,12.0,0.,12.0,0.,12.0,0.,12.0
1979-07-02 19:07:15.970 ,5,1,0.,12.0,0.,12.0,0.,12.0,0.,12.0
1979-07-02 19:07:27.970 ,5,1,0.,12.0,0.,12.0,0.,12.0,0.,12.0
1979-07-02 19:07:39.970 ,5,0,0.,12.0,0.,12.0,0.,12.0,0.,12.0
1979-07-02 19:07:51.970 ,5,0,0.,12.0,0.,12.0,0.,12.0,0.,12.0
1979-07-02 19:08:03.970 ,4,1,0.,12.0,0.,12.0,0.,12.0,0.,12.0
1979-07-02 19:08:15.970 ,4,1,0.,12.0,0.,12.0,0.,12.0,0.,12.0
1979-07-02 19:08:27.970 ,4,0,0.,12.0,0.,12.0,0.,12.0,0.,12.0
1979-07-02 19:08:39.970 ,4,0,0.,12.0,0.,12.0,0.,12.0,0.,12.0
1979-07-02 19:08:51.970 ,3,1,0.,12.0,0.,12.0,0.,12.0,0.,12.0
1979-07-02 19:09:03.970 ,3,1,0.,12.0,0.,12.0,0.,12.0,0.,12.0
1979-07-02 19:09:15.970 ,3,0,0.,12.0,0.,12.0,0.,12.0,0.,12.0
1979-07-02 19:09:27.970 ,3,0,0.,12.0,0.,12.0,0.,12.0,0.,12.0
1979-07-02 19:09:39.970 ,2,1,0.,12.0,0.,12.0,0.,12.0,0.,12.0
1979-07-02 19:09:51.970 ,2,1,0.,12.0,0.,12.0,0.,12.0,0.,12.0
1979-07-02 19:10:03.970 ,2,0,0.,12.0,0.,12.0,0.,12.0,0.,12.0
1979-07-02 19:10:15.970 ,2,0,0.,12.0,0.,12.0,0.,12.0,0.,12.0
1979-07-02 19:10:27.970 ,1,1,0.,12.0,0.,12.0,0.,12.0,0.,12.0
1979-07-02 19:10:39.970 ,1,1,0.,12.0,0.,12.0,0.,12.0,0.,12.0
1979-07-02 19:10:51.970 ,0,0,0.,12.0,0.,12.0,0.,12.0,0.,12.0
1979-07-02 19:11:03.970 ,0,0,0.,12.0,0.,12.0,0.,12.0,0.,12.0
1979-07-02 19:12:24.370 ,0,0,,0,,0,,0,,0
1979-07-02 19:12:36.370 ,0,0,,0,,0,,0,,0
1979-07-02 19:12:27.970 ,0,0,0.,12.0,0.,12.0,0.,12.0,0.,12.0
1979-07-02 19:12:39.970 ,0,0,0.,12.0,0.,12.0,0.,12.0,0.,12.0
1979-07-02 19:12:51.970 ,1,1,0.,12.0,0.,12.0,0.,12.0,0.,12.0
1979-07-02 19:13:03.970 ,1,1,0.,12.0,0.,12.0,0.,12.0,0.,12.0
1979-07-02 19:13:15.970 ,1,0,0.,12.0,0.,12.0,0.,12.0,0.,12.0
1979-07-02 19:13:27.970 ,1,0,0.,12.0,0.,12.0,0.,12.0,0.,12.0
1979-07-02 19:13:39.970 ,2,1,0.,12.0,0.,12.0,0.,12.0,0.,12.0
1979-07-02 19:13:51.970 ,2,1,0.,12.0,0.,12.0,0.,12.0,0.,12.0
1979-07-02 19:14:03.970 ,2,0,0.,12.0,0.,12.0,0.,12.0,0.,12.0
1979-07-02 19:14:15.970 ,2,0,0.,12.0,0.,12.0,0.,12.0,0.,12.0
1979-07-02 19:14:27.970 ,3,1,0.,12.0,0.,12.0,0.,12.0,0.,12.0
1979-07-02 19:14:39.970 ,3,1,0.,12.0,0.,12.0,0.,12.0,0.,12.0
1979-07-02 19:14:51.970 ,3,0,0.,12.0,0.,12.0,0.,12.0,0.,12.0
1979-07-02 19:15:03.970 ,3,0,0.,12.0,0.,12.0,0.,12.0,0.,12.0
1979-07-02 19:15:15.970 ,4,1,0.,12.0,0.,12.0,0.,12.0,0.,12.0
1979-07-02 19:15:27.970 ,4,1,0.,12.0,0.,12.0,0.,12.0,0.,12.0
1979-07-02 19:15:39.970 ,4,0,0.,12.0,0.,12.0,0.,12.0,0.,12.0
1979-07-02 19:15:51.970 ,4,0,0.,12.0,0.,12.0,0.,12.0,0.,12.0
1979-07-02 19:16:03.970 ,5,1,0.,12.0,0.,12.0,0.,12.0,0.,12.0
1979-07-02 19:16:15.970 ,5,1,0.,12.0,0.,12.0,0.,12.0,0.,12.0
1979-07-02 19:16:27.970 ,5,0,0.,12.0,0.,12.0,0.,12.0,0.,12.0
1979-07-02 19:16:39.970 ,5,0,0.,12.0,0.,12.0,0.,12.0,0.,12.0
1979-07-02 19:16:51.970 ,6,1,0.,12.0,0.,12.0,0.,12.0,0.,12.0
1979-07-02 19:17:03.970 ,6,1,0.,12.0,0.,12.0,0.,12.0,0.,12.0
1979-07-02 19:17:15.970 ,6,0,0.,12.0,0.,12.0,0.,12.0,0.,12.0
1979-07-02 19:17:27.970 ,6,0,0.,12.0,0.,12.0,0.,12.0,0.,12.0
1979-07-02 19:17:39.970 ,7,1,0.,12.0,0.,12.0,0.,12.0,0.,12.0
1979-07-02 19:17:51.970 ,7,1,0.,12.0,0.,12.0,0.,12.0,0.,12.0
1979-07-02 19:18:03.970 ,7,0,0.,12.0,0.,12.0,0.,12.0,0.,12.0
1979-07-02 19:18:15.970 ,7,0,0.,12.0,0.,12.0,0.,12.0,0.,12.0
1979-07-02 19:18:27.970 ,7,1,,0,,0,,0,,0
1979-07-02 19:18:39.970 ,7,1,0.,12.0,0.,12.0,0.,12.0,0.,12.0
1979-07-02 19:18:51.970 ,7,0,0.,12.0,0.,12.0,0.,12.0,0.,12.0
1979-07-02 19:19:03.970 ,7,0,0.,12.0,0.,12.0,0.,12.0,0.,12.0
1979-07-02 19:19:15.970 ,6,1,0.,12.0,0.,12.0,0.,12.0,0.,12.0
1979-07-02 19:19:27.970 ,6,1,0.,12.0,0.,12.0,0.,12.0,0.,12.0